Tracking 18917 objects as of 16-Jan-2018
HD Live streaming from Space Station
objects crossing your sky now

COSMOS 785

Track COSMOS 785 now!
10-day predictions
COSMOS 785 is classified as:


NORAD ID: 8473
Int'l Code: 1975-116A
Perigee: 893.6 km
Apogee: 1,033.1 km
Inclination: 65.1 °
Period: 104.2 minutes
Semi major axis: 7334 km
RCS: 3.5974 m2 (large)
Launch date: December 12, 1975
Source: Commonwealth of Independent States (former USSR) (CIS)
Launch site: TYURATAM MISSILE AND SPACE COMPLEX (TTMTR)
aabbcc
Your satellite tracking list
Your tracking list is empty




NASA's NSSDC Master Catalog

Two Line Element Set (TLE):
1 08473U 75116A   18016.22762185 -.00000096  00000-0 -74490-5 0  9997
2 08473  65.0783 349.5296 0095064 278.8756  80.1550 13.82172767124479
Source of the keplerian elements: AFSPC